Year,Month,Day,Hour,Minute,Value (Times are PST for temperature in C)
2013,05,05,00,00,12.80
2013,05,05,00,01,12.80
2013,05,05,00,02,12.80
2013,05,05,00,03,12.80
2013,05,05,00,04,12.70
2013,05,05,00,05,12.70
2013,05,05,00,06,12.70
2013,05,05,00,07,12.70
2013,05,05,00,08,12.70
2013,05,05,00,09,12.70
2013,05,05,00,10,12.70
2013,05,05,00,11,12.70
2013,05,05,00,12,12.60
2013,05,05,00,13,12.60
2013,05,05,00,14,12.60
2013,05,05,00,15,12.60
2013,05,05,00,16,12.50
2013,05,05,00,17,12.50
2013,05,05,00,18,12.40
2013,05,05,00,19,12.40
2013,05,05,00,20,12.40
2013,05,05,00,21,12.40
2013,05,05,00,22,12.30
2013,05,05,00,23,12.30
2013,05,05,00,24,12.30
2013,05,05,00,25,12.30
2013,05,05,00,26,12.30
2013,05,05,00,27,12.30
2013,05,05,00,28,12.30
2013,05,05,00,29,12.30
2013,05,05,00,30,12.20
2013,05,05,00,31,12.20
2013,05,05,00,32,12.20
2013,05,05,00,33,12.20
2013,05,05,00,34,12.20
2013,05,05,00,35,12.20
2013,05,05,00,36,12.10
2013,05,05,00,37,12.10
2013,05,05,00,38,12.10
2013,05,05,00,39,12.10
2013,05,05,00,40,12.10
2013,05,05,00,41,12.10
2013,05,05,00,42,12.10
2013,05,05,00,43,12.10
2013,05,05,00,44,12.10
2013,05,05,00,45,12.10
2013,05,05,00,46,12.10
2013,05,05,00,47,12.00
2013,05,05,00,48,12.00
2013,05,05,00,49,12.00
2013,05,05,00,50,11.90
2013,05,05,00,51,11.90
2013,05,05,00,52,11.90
2013,05,05,00,53,11.90
2013,05,05,00,54,11.90
2013,05,05,00,55,11.80
2013,05,05,00,56,11.90
2013,05,05,00,57,11.90
2013,05,05,00,58,11.90
2013,05,05,00,59,11.90
2013,05,05,01,00,11.90
2013,05,05,01,01,11.90
2013,05,05,01,02,11.90
2013,05,05,01,03,11.90
2013,05,05,01,04,11.90
2013,05,05,01,05,11.90
2013,05,05,01,06,11.90
2013,05,05,01,07,11.90
2013,05,05,01,08,11.90
2013,05,05,01,09,11.90
2013,05,05,01,10,11.80
2013,05,05,01,11,11.80
2013,05,05,01,12,11.80
2013,05,05,01,13,11.80
2013,05,05,01,14,11.80
2013,05,05,01,15,11.80
2013,05,05,01,16,11.80
2013,05,05,01,17,11.80
2013,05,05,01,18,11.80
2013,05,05,01,19,11.90
2013,05,05,01,20,11.90
2013,05,05,01,21,11.90
2013,05,05,01,22,11.90
2013,05,05,01,23,11.90
2013,05,05,01,24,11.90
2013,05,05,01,25,11.90
2013,05,05,01,26,11.90
2013,05,05,01,27,11.80
2013,05,05,01,28,11.80
2013,05,05,01,29,11.80
2013,05,05,01,30,11.70
2013,05,05,01,31,11.70
2013,05,05,01,32,11.60
2013,05,05,01,33,11.60
2013,05,05,01,34,11.60
2013,05,05,01,35,11.50
2013,05,05,01,36,11.50
2013,05,05,01,37,11.50
2013,05,05,01,38,11.50
2013,05,05,01,39,11.50
2013,05,05,01,40,11.40
2013,05,05,01,41,11.50
2013,05,05,01,42,11.50
2013,05,05,01,43,11.50
2013,05,05,01,44,11.40
2013,05,05,01,45,11.40
2013,05,05,01,46,11.30
2013,05,05,01,47,11.30
2013,05,05,01,48,11.20
2013,05,05,01,49,11.20
2013,05,05,01,50,11.20
2013,05,05,01,51,11.20
2013,05,05,01,52,11.10
2013,05,05,01,53,11.10
2013,05,05,01,54,11.20
2013,05,05,01,55,11.20
2013,05,05,01,56,11.30
2013,05,05,01,57,11.30
2013,05,05,01,58,11.30
2013,05,05,01,59,11.30
2013,05,05,02,00,11.30
2013,05,05,02,01,11.30
2013,05,05,02,02,11.30
2013,05,05,02,03,11.30
2013,05,05,02,04,11.40
2013,05,05,02,05,11.40
2013,05,05,02,06,11.40
2013,05,05,02,07,11.40
2013,05,05,02,08,11.40
2013,05,05,02,09,11.40
2013,05,05,02,10,11.40
2013,05,05,02,11,11.40
2013,05,05,02,12,11.40
2013,05,05,02,13,11.40
2013,05,05,02,14,11.40
2013,05,05,02,15,11.40
2013,05,05,02,16,11.40
2013,05,05,02,17,11.30
2013,05,05,02,18,11.30
2013,05,05,02,19,11.30
2013,05,05,02,20,11.30
2013,05,05,02,21,11.40
2013,05,05,02,22,11.40
2013,05,05,02,23,11.40
2013,05,05,02,24,11.50
2013,05,05,02,25,11.50
2013,05,05,02,26,11.50
2013,05,05,02,27,11.60
2013,05,05,02,28,11.60
2013,05,05,02,29,11.60
2013,05,05,02,30,11.70
2013,05,05,02,31,11.70
2013,05,05,02,32,11.70
2013,05,05,02,33,11.60
2013,05,05,02,34,11.60
2013,05,05,02,35,11.50
2013,05,05,02,36,11.50
2013,05,05,02,37,11.40
2013,05,05,02,38,11.40
2013,05,05,02,39,11.40
2013,05,05,02,40,11.30
2013,05,05,02,41,11.30
2013,05,05,02,42,11.30
2013,05,05,02,43,11.30
2013,05,05,02,44,11.30
2013,05,05,02,45,11.30
2013,05,05,02,46,11.30
2013,05,05,02,47,11.30
2013,05,05,02,48,11.40
2013,05,05,02,49,11.40
2013,05,05,02,50,11.50
2013,05,05,02,51,11.60
2013,05,05,02,52,11.70
2013,05,05,02,53,11.80
2013,05,05,02,54,11.90
2013,05,05,02,55,12.00
2013,05,05,02,56,12.10
2013,05,05,02,57,12.30
2013,05,05,02,58,12.40
2013,05,05,02,59,12.60
2013,05,05,03,00,12.80
2013,05,05,03,01,13.00
2013,05,05,03,02,13.30
2013,05,05,03,03,13.60
2013,05,05,03,04,13.90
2013,05,05,03,05,14.10
2013,05,05,03,06,14.40
2013,05,05,03,07,14.70
2013,05,05,03,08,14.90
2013,05,05,03,09,15.00
2013,05,05,03,10,15.20
2013,05,05,03,11,15.40
2013,05,05,03,12,15.60
2013,05,05,03,13,15.70
2013,05,05,03,14,15.80
2013,05,05,03,15,15.90
2013,05,05,03,16,16.00
2013,05,05,03,17,16.10
2013,05,05,03,18,16.10
2013,05,05,03,19,16.10
2013,05,05,03,20,16.20
2013,05,05,03,21,16.20
2013,05,05,03,22,16.20
2013,05,05,03,23,16.20
2013,05,05,03,24,16.20
2013,05,05,03,25,16.30
2013,05,05,03,26,16.30
2013,05,05,03,27,16.30
2013,05,05,03,28,16.30
2013,05,05,03,29,16.40
2013,05,05,03,30,16.40
2013,05,05,03,31,16.40
2013,05,05,03,32,16.40
2013,05,05,03,33,16.40
2013,05,05,03,34,16.30
2013,05,05,03,35,16.30
2013,05,05,03,36,16.20
2013,05,05,03,37,16.20
2013,05,05,03,38,16.10
2013,05,05,03,39,16.10
2013,05,05,03,40,16.10
2013,05,05,03,41,16.10
2013,05,05,03,42,16.00
2013,05,05,03,43,16.00
2013,05,05,03,44,16.00
2013,05,05,03,45,16.00
2013,05,05,03,46,16.00
2013,05,05,03,47,16.00
2013,05,05,03,48,15.90
2013,05,05,03,49,15.90
2013,05,05,03,50,15.90
2013,05,05,03,51,15.90
2013,05,05,03,52,15.90
2013,05,05,03,53,16.00
2013,05,05,03,54,16.00
2013,05,05,03,55,16.00
2013,05,05,03,56,16.00
2013,05,05,03,57,16.10
2013,05,05,03,58,16.10
2013,05,05,03,59,16.10
2013,05,05,04,00,16.20
2013,05,05,04,01,16.20
2013,05,05,04,02,16.20
2013,05,05,04,03,16.30
2013,05,05,04,04,16.30
2013,05,05,04,05,16.30
2013,05,05,04,06,16.30
2013,05,05,04,07,16.30
2013,05,05,04,08,16.30
2013,05,05,04,09,16.30
2013,05,05,04,10,16.20
2013,05,05,04,11,16.20
2013,05,05,04,12,16.20
2013,05,05,04,13,16.20
2013,05,05,04,14,16.20
2013,05,05,04,15,16.20
2013,05,05,04,16,16.20
2013,05,05,04,17,16.10
2013,05,05,04,18,16.10
2013,05,05,04,19,16.10
2013,05,05,04,20,16.10
2013,05,05,04,21,16.10
2013,05,05,04,22,16.10
2013,05,05,04,23,16.10
2013,05,05,04,24,16.00
2013,05,05,04,25,16.00
2013,05,05,04,26,16.00
2013,05,05,04,27,15.90
2013,05,05,04,28,15.90
2013,05,05,04,29,15.80
2013,05,05,04,30,15.80
2013,05,05,04,31,15.70
2013,05,05,04,32,15.60
2013,05,05,04,33,15.60
2013,05,05,04,34,15.50
2013,05,05,04,35,15.40
2013,05,05,04,36,15.30
2013,05,05,04,37,15.30
2013,05,05,04,38,15.20
2013,05,05,04,39,15.00
2013,05,05,04,40,15.00
2013,05,05,04,41,15.00
2013,05,05,04,42,14.80
2013,05,05,04,43,14.60
2013,05,05,04,44,14.50
2013,05,05,04,45,14.30
2013,05,05,04,46,14.20
2013,05,05,04,47,14.10
2013,05,05,04,48,14.00
2013,05,05,04,49,14.00
2013,05,05,04,50,13.90
2013,05,05,04,51,13.90
2013,05,05,04,52,13.90
2013,05,05,04,53,13.80
2013,05,05,04,54,13.80
2013,05,05,04,55,13.80
2013,05,05,04,56,13.70
2013,05,05,04,57,13.70
2013,05,05,04,58,13.60
2013,05,05,04,59,13.60
2013,05,05,05,00,13.60
2013,05,05,05,01,13.50
2013,05,05,05,02,13.50
2013,05,05,05,03,13.50
2013,05,05,05,04,13.40
2013,05,05,05,05,13.40
2013,05,05,05,06,13.40
2013,05,05,05,07,13.40
2013,05,05,05,08,13.50
2013,05,05,05,09,13.60
2013,05,05,05,10,13.70
2013,05,05,05,11,13.70
2013,05,05,05,12,13.80
2013,05,05,05,13,13.80
2013,05,05,05,14,13.90
2013,05,05,05,15,13.90
2013,05,05,05,16,13.90
2013,05,05,05,17,13.90
2013,05,05,05,18,13.90
2013,05,05,05,19,13.90
2013,05,05,05,20,13.90
2013,05,05,05,21,13.90
2013,05,05,05,22,13.90
2013,05,05,05,23,13.90
2013,05,05,05,24,13.90
2013,05,05,05,25,13.90
2013,05,05,05,26,13.90
2013,05,05,05,27,13.80
2013,05,05,05,28,13.70
2013,05,05,05,29,13.60
2013,05,05,05,30,13.60
2013,05,05,05,31,13.60
2013,05,05,05,32,13.50
2013,05,05,05,33,13.50
2013,05,05,05,34,13.40
2013,05,05,05,35,13.40
2013,05,05,05,36,13.40
2013,05,05,05,37,13.40
2013,05,05,05,38,13.40
2013,05,05,05,39,13.30
2013,05,05,05,40,13.30
2013,05,05,05,41,13.30
2013,05,05,05,42,13.30
2013,05,05,05,43,13.30
2013,05,05,05,44,13.30
2013,05,05,05,45,13.20
2013,05,05,05,46,13.20
2013,05,05,05,47,13.10
2013,05,05,05,48,13.10
2013,05,05,05,49,13.10
2013,05,05,05,50,13.00
2013,05,05,05,51,13.00
2013,05,05,05,52,13.00
2013,05,05,05,53,12.90
2013,05,05,05,54,12.90
2013,05,05,05,55,12.80
2013,05,05,05,56,12.80
2013,05,05,05,57,12.80
2013,05,05,05,58,12.70
2013,05,05,05,59,12.70
2013,05,05,06,00,12.70
2013,05,05,06,01,12.70
2013,05,05,06,02,12.70
2013,05,05,06,03,12.60
2013,05,05,06,04,12.60
2013,05,05,06,05,12.60
2013,05,05,06,06,12.50
2013,05,05,06,07,12.50
2013,05,05,06,08,12.40
2013,05,05,06,09,12.40
2013,05,05,06,10,12.40
2013,05,05,06,11,12.40
2013,05,05,06,12,12.30
2013,05,05,06,13,12.30
2013,05,05,06,14,12.30
2013,05,05,06,15,12.20
2013,05,05,06,16,12.20
2013,05,05,06,17,12.20
2013,05,05,06,18,12.20
2013,05,05,06,19,12.20
2013,05,05,06,20,12.10
2013,05,05,06,21,12.10
2013,05,05,06,22,12.10
2013,05,05,06,23,12.10
2013,05,05,06,24,12.10
2013,05,05,06,25,12.10
2013,05,05,06,26,12.00
2013,05,05,06,27,12.00
2013,05,05,06,28,12.00
2013,05,05,06,29,12.00
2013,05,05,06,30,12.00
2013,05,05,06,31,12.00
2013,05,05,06,32,12.00
2013,05,05,06,33,12.00
2013,05,05,06,34,12.00
2013,05,05,06,35,12.10
2013,05,05,06,36,12.10
2013,05,05,06,37,12.10
2013,05,05,06,38,12.10
2013,05,05,06,39,12.20
2013,05,05,06,40,12.30
2013,05,05,06,41,12.30
2013,05,05,06,42,12.40
2013,05,05,06,43,12.50
2013,05,05,06,44,12.50
2013,05,05,06,45,12.60
2013,05,05,06,46,12.70
2013,05,05,06,47,12.70
2013,05,05,06,48,12.80
2013,05,05,06,49,12.90
2013,05,05,06,50,13.00
2013,05,05,06,51,13.10
2013,05,05,06,52,13.20
2013,05,05,06,53,13.30
2013,05,05,06,54,13.40
2013,05,05,06,55,13.50
2013,05,05,06,56,13.60
2013,05,05,06,57,13.60
2013,05,05,06,58,13.70
2013,05,05,06,59,13.80
2013,05,05,07,00,14.00
2013,05,05,07,01,14.10
2013,05,05,07,02,14.20
2013,05,05,07,03,14.30
2013,05,05,07,04,14.40
2013,05,05,07,05,14.50
2013,05,05,07,06,14.60
2013,05,05,07,07,14.70
2013,05,05,07,08,14.90
2013,05,05,07,09,15.00
2013,05,05,07,10,15.00
2013,05,05,07,11,15.10
2013,05,05,07,12,15.30
2013,05,05,07,13,15.40
2013,05,05,07,14,15.50
2013,05,05,07,15,15.60
2013,05,05,07,16,15.70
2013,05,05,07,17,15.80
2013,05,05,07,18,15.80
2013,05,05,07,19,15.90
2013,05,05,07,20,16.00
2013,05,05,07,21,16.10
2013,05,05,07,22,16.20
2013,05,05,07,23,16.30
2013,05,05,07,24,16.30
2013,05,05,07,25,16.30
2013,05,05,07,26,16.40
2013,05,05,07,27,16.40
2013,05,05,07,28,16.50
2013,05,05,07,29,16.60
2013,05,05,07,30,16.70
2013,05,05,07,31,16.70
2013,05,05,07,32,16.80
2013,05,05,07,33,16.80
2013,05,05,07,34,16.80
2013,05,05,07,35,16.80
2013,05,05,07,36,16.80
2013,05,05,07,37,16.80
2013,05,05,07,38,16.80
2013,05,05,07,39,16.80
2013,05,05,07,40,16.80
2013,05,05,07,41,16.80
2013,05,05,07,42,16.80
2013,05,05,07,43,16.80
2013,05,05,07,44,16.80
2013,05,05,07,45,16.80
2013,05,05,07,46,16.90
2013,05,05,07,47,16.90
2013,05,05,07,48,17.00
2013,05,05,07,49,17.00
2013,05,05,07,50,17.10
2013,05,05,07,51,17.10
2013,05,05,07,52,17.20
2013,05,05,07,53,17.20
2013,05,05,07,54,17.30
2013,05,05,07,55,17.30
2013,05,05,07,56,17.30
2013,05,05,07,57,17.40
2013,05,05,07,58,17.40
2013,05,05,07,59,17.50
2013,05,05,08,00,17.60
2013,05,05,08,01,17.60
2013,05,05,08,02,17.60
2013,05,05,08,03,17.70
2013,05,05,08,04,17.70
2013,05,05,08,05,17.70
2013,05,05,08,06,17.80
2013,05,05,08,07,17.80
2013,05,05,08,08,17.80
2013,05,05,08,09,17.80
2013,05,05,08,10,17.80
2013,05,05,08,11,17.70
2013,05,05,08,12,17.70
2013,05,05,08,13,17.70
2013,05,05,08,14,17.70
2013,05,05,08,15,17.70
2013,05,05,08,16,17.80
2013,05,05,08,17,17.80
2013,05,05,08,18,17.80
2013,05,05,08,19,17.80
2013,05,05,08,20,17.80
2013,05,05,08,21,17.80
2013,05,05,08,22,17.80
2013,05,05,08,23,17.80
2013,05,05,08,24,17.80
2013,05,05,08,25,17.80
2013,05,05,08,26,17.80
2013,05,05,08,27,17.80
2013,05,05,08,28,17.90
2013,05,05,08,29,17.90
2013,05,05,08,30,17.90
2013,05,05,08,31,17.90
2013,05,05,08,32,17.90
2013,05,05,08,33,17.90
2013,05,05,08,34,17.90
2013,05,05,08,35,17.90
2013,05,05,08,36,17.90
2013,05,05,08,37,17.90
2013,05,05,08,38,17.90
2013,05,05,08,39,17.90
2013,05,05,08,40,17.90
2013,05,05,08,41,18.00
2013,05,05,08,42,18.00
2013,05,05,08,43,18.10
2013,05,05,08,44,18.10
2013,05,05,08,45,18.20
2013,05,05,08,46,18.20
2013,05,05,08,47,18.20
2013,05,05,08,48,18.20
2013,05,05,08,49,18.20
2013,05,05,08,50,18.30
2013,05,05,08,51,18.30
2013,05,05,08,52,18.40
2013,05,05,08,53,18.50
2013,05,05,08,54,18.50
2013,05,05,08,55,18.60
2013,05,05,08,56,18.60
2013,05,05,08,57,18.60
2013,05,05,08,58,18.60
2013,05,05,08,59,18.70
2013,05,05,09,00,18.80
2013,05,05,09,01,18.80
2013,05,05,09,02,18.80
2013,05,05,09,03,18.80
2013,05,05,09,04,18.80
2013,05,05,09,05,18.80
2013,05,05,09,06,18.80
2013,05,05,09,07,18.80
2013,05,05,09,08,18.70
2013,05,05,09,09,18.80
2013,05,05,09,10,18.80
2013,05,05,09,11,18.80
2013,05,05,09,12,18.80
2013,05,05,09,13,18.90
2013,05,05,09,14,18.90
2013,05,05,09,15,18.80
2013,05,05,09,16,18.80
2013,05,05,09,17,18.80
2013,05,05,09,18,18.70
2013,05,05,09,19,18.80
2013,05,05,09,20,18.80
2013,05,05,09,21,18.80
2013,05,05,09,22,18.80
2013,05,05,09,23,18.80
2013,05,05,09,24,18.80
2013,05,05,09,25,18.90
2013,05,05,09,26,19.00
2013,05,05,09,27,19.10
2013,05,05,09,28,19.20
2013,05,05,09,29,19.30
2013,05,05,09,30,19.30
2013,05,05,09,31,19.20
2013,05,05,09,32,19.20
2013,05,05,09,33,19.20
2013,05,05,09,34,19.20
2013,05,05,09,35,19.20
2013,05,05,09,36,19.20
2013,05,05,09,37,19.20
2013,05,05,09,38,19.20
2013,05,05,09,39,19.20
2013,05,05,09,40,19.10
2013,05,05,09,41,19.10
2013,05,05,09,42,19.20
2013,05,05,09,43,19.20
2013,05,05,09,44,19.20
2013,05,05,09,45,19.20
2013,05,05,09,46,19.20
2013,05,05,09,47,19.30
2013,05,05,09,48,19.30
2013,05,05,09,49,19.40
2013,05,05,09,50,19.50
2013,05,05,09,51,19.50
2013,05,05,09,52,19.60
2013,05,05,09,53,19.60
2013,05,05,09,54,19.60
2013,05,05,09,55,19.60
2013,05,05,09,56,19.60
2013,05,05,09,57,19.60
2013,05,05,09,58,19.60
2013,05,05,09,59,19.60
2013,05,05,10,00,19.50
2013,05,05,10,01,19.50
2013,05,05,10,02,19.40
2013,05,05,10,03,19.50
2013,05,05,10,04,19.50
2013,05,05,10,05,19.50
2013,05,05,10,06,19.50
2013,05,05,10,07,19.50
2013,05,05,10,08,19.40
2013,05,05,10,09,19.50
2013,05,05,10,10,19.50
2013,05,05,10,11,19.60
2013,05,05,10,12,19.60
2013,05,05,10,13,19.50
2013,05,05,10,14,19.50
2013,05,05,10,15,19.40
2013,05,05,10,16,19.50
2013,05,05,10,17,19.50
2013,05,05,10,18,19.50
2013,05,05,10,19,19.50
2013,05,05,10,20,19.50
2013,05,05,10,21,19.40
2013,05,05,10,22,19.40
2013,05,05,10,23,19.50
2013,05,05,10,24,19.50
2013,05,05,10,25,19.40
2013,05,05,10,26,19.40
2013,05,05,10,27,19.50
2013,05,05,10,28,19.60
2013,05,05,10,29,19.70
2013,05,05,10,30,19.80
2013,05,05,10,31,19.90
2013,05,05,10,32,20.00
2013,05,05,10,33,20.10
2013,05,05,10,34,20.10
2013,05,05,10,35,20.10
2013,05,05,10,36,20.10
2013,05,05,10,37,20.20
2013,05,05,10,38,20.20
2013,05,05,10,39,20.30
2013,05,05,10,40,20.40
2013,05,05,10,41,20.30
2013,05,05,10,42,20.30
2013,05,05,10,43,20.20
2013,05,05,10,44,20.20
2013,05,05,10,45,20.20
2013,05,05,10,46,20.30
2013,05,05,10,47,20.30
2013,05,05,10,48,20.30
2013,05,05,10,49,20.40
2013,05,05,10,50,20.40
2013,05,05,10,51,20.40
2013,05,05,10,52,20.40
2013,05,05,10,53,20.40
2013,05,05,10,54,20.30
2013,05,05,10,55,20.30
2013,05,05,10,56,20.30
2013,05,05,10,57,20.40
2013,05,05,10,58,20.40
2013,05,05,10,59,20.50
2013,05,05,11,00,20.50
2013,05,05,11,01,20.50
2013,05,05,11,02,20.50
2013,05,05,11,03,20.60
2013,05,05,11,04,20.60
2013,05,05,11,05,20.70
2013,05,05,11,06,20.80
2013,05,05,11,07,20.80
2013,05,05,11,08,20.80
2013,05,05,11,09,20.80
2013,05,05,11,10,20.90
2013,05,05,11,11,20.90
2013,05,05,11,12,21.00
2013,05,05,11,13,21.10
2013,05,05,11,14,21.10
2013,05,05,11,15,21.20
2013,05,05,11,16,21.20
2013,05,05,11,17,21.20
2013,05,05,11,18,21.20
2013,05,05,11,19,21.10
2013,05,05,11,20,21.00
2013,05,05,11,21,20.90
2013,05,05,11,22,20.90
2013,05,05,11,23,20.90
2013,05,05,11,24,20.90
2013,05,05,11,25,21.00
2013,05,05,11,26,21.00
2013,05,05,11,27,21.00
2013,05,05,11,28,21.10
2013,05,05,11,29,21.10
2013,05,05,11,30,21.10
2013,05,05,11,31,21.10
2013,05,05,11,32,21.10
2013,05,05,11,33,21.00
2013,05,05,11,34,20.90
2013,05,05,11,35,20.90
2013,05,05,11,36,20.90
2013,05,05,11,37,21.00
2013,05,05,11,38,21.00
2013,05,05,11,39,21.10
2013,05,05,11,40,21.20
2013,05,05,11,41,21.20
2013,05,05,11,42,21.30
2013,05,05,11,43,21.30
2013,05,05,11,44,21.30
2013,05,05,11,45,21.40
2013,05,05,11,46,21.50
2013,05,05,11,47,21.60
2013,05,05,11,48,21.70
2013,05,05,11,49,21.80
2013,05,05,11,50,21.80
2013,05,05,11,51,21.80
2013,05,05,11,52,21.80
2013,05,05,11,53,21.80
2013,05,05,11,54,21.70
2013,05,05,11,55,21.70
2013,05,05,11,56,21.70
2013,05,05,11,57,21.70
2013,05,05,11,58,21.60
2013,05,05,11,59,21.60
2013,05,05,12,00,21.60
2013,05,05,12,01,21.50
2013,05,05,12,02,21.50
2013,05,05,12,03,21.50
2013,05,05,12,04,21.60
2013,05,05,12,05,21.60
2013,05,05,12,06,21.70
2013,05,05,12,07,21.80
2013,05,05,12,08,21.90
2013,05,05,12,09,22.00
2013,05,05,12,10,22.10
2013,05,05,12,11,22.10
2013,05,05,12,12,22.00
2013,05,05,12,13,21.90
2013,05,05,12,14,21.90
2013,05,05,12,15,22.00
2013,05,05,12,16,22.10
2013,05,05,12,17,22.20
2013,05,05,12,18,22.20
2013,05,05,12,19,22.20
2013,05,05,12,20,22.30
2013,05,05,12,21,22.40
2013,05,05,12,22,22.40
2013,05,05,12,23,22.40
2013,05,05,12,24,22.40
2013,05,05,12,25,22.50
2013,05,05,12,26,22.60
2013,05,05,12,27,22.60
2013,05,05,12,28,22.60
2013,05,05,12,29,22.70
2013,05,05,12,30,22.70
2013,05,05,12,31,22.80
2013,05,05,12,32,22.80
2013,05,05,12,33,22.70
2013,05,05,12,34,22.70
2013,05,05,12,35,22.70
2013,05,05,12,36,22.70
2013,05,05,12,37,22.80
2013,05,05,12,38,22.80
2013,05,05,12,39,22.70
2013,05,05,12,40,22.80
2013,05,05,12,41,22.90
2013,05,05,12,42,23.00
2013,05,05,12,43,23.00
2013,05,05,12,44,23.10
2013,05,05,12,45,23.20
2013,05,05,12,46,23.20
2013,05,05,12,47,23.30
2013,05,05,12,48,23.30
2013,05,05,12,49,23.30
2013,05,05,12,50,23.30
2013,05,05,12,51,23.30
2013,05,05,12,52,23.30
2013,05,05,12,53,23.30
2013,05,05,12,54,23.30
2013,05,05,12,55,23.30
2013,05,05,12,56,23.20
2013,05,05,12,57,23.10
2013,05,05,12,58,23.10
2013,05,05,12,59,23.10
2013,05,05,13,00,23.10
2013,05,05,13,01,23.10
2013,05,05,13,02,23.10
2013,05,05,13,03,23.10
2013,05,05,13,04,23.20
2013,05,05,13,05,23.30
2013,05,05,13,06,23.30
2013,05,05,13,07,23.30
2013,05,05,13,08,23.30
2013,05,05,13,09,23.30
2013,05,05,13,10,23.30
2013,05,05,13,11,23.20
2013,05,05,13,12,23.20
2013,05,05,13,13,23.20
2013,05,05,13,14,23.20
2013,05,05,13,15,23.10
2013,05,05,13,16,23.10
2013,05,05,13,17,23.20
2013,05,05,13,18,23.30
2013,05,05,13,19,23.30
2013,05,05,13,20,23.30
2013,05,05,13,21,23.30
2013,05,05,13,22,23.30
2013,05,05,13,23,23.30
2013,05,05,13,24,23.30
2013,05,05,13,25,23.30
2013,05,05,13,26,23.40
2013,05,05,13,27,23.40
2013,05,05,13,28,23.50
2013,05,05,13,29,23.60
2013,05,05,13,30,23.70
2013,05,05,13,31,23.80
2013,05,05,13,32,23.80
2013,05,05,13,33,23.90
2013,05,05,13,34,23.90
2013,05,05,13,35,23.90
2013,05,05,13,36,23.90
2013,05,05,13,37,23.90
2013,05,05,13,38,23.90
2013,05,05,13,39,23.90
2013,05,05,13,40,24.00
2013,05,05,13,41,24.10
2013,05,05,13,42,24.20
2013,05,05,13,43,24.30
2013,05,05,13,44,24.40
2013,05,05,13,45,24.60
2013,05,05,13,46,24.60
2013,05,05,13,47,24.60
2013,05,05,13,48,24.60
2013,05,05,13,49,24.50
2013,05,05,13,50,24.50
2013,05,05,13,51,24.50
2013,05,05,13,52,24.40
2013,05,05,13,53,24.30
2013,05,05,13,54,24.30
2013,05,05,13,55,24.30
2013,05,05,13,56,24.40
2013,05,05,13,57,24.50
2013,05,05,13,58,24.60
2013,05,05,13,59,24.70
2013,05,05,14,00,24.70
2013,05,05,14,01,24.70
2013,05,05,14,02,24.70
2013,05,05,14,03,24.70
2013,05,05,14,04,24.60
2013,05,05,14,05,24.70
2013,05,05,14,06,24.60
2013,05,05,14,07,24.60
2013,05,05,14,08,24.60
2013,05,05,14,09,24.70
2013,05,05,14,10,24.80
2013,05,05,14,11,24.80
2013,05,05,14,12,24.80
2013,05,05,14,13,24.80
2013,05,05,14,14,24.90
2013,05,05,14,15,25.00
2013,05,05,14,16,25.10
2013,05,05,14,17,25.10
2013,05,05,14,18,25.20
2013,05,05,14,19,25.30
2013,05,05,14,20,25.40
2013,05,05,14,21,25.40
2013,05,05,14,22,25.40
2013,05,05,14,23,25.30
2013,05,05,14,24,25.30
2013,05,05,14,25,25.30
2013,05,05,14,26,25.40
2013,05,05,14,27,25.50
2013,05,05,14,28,25.60
2013,05,05,14,29,25.60
2013,05,05,14,30,25.50
2013,05,05,14,31,25.50
2013,05,05,14,32,25.40
2013,05,05,14,33,25.40
2013,05,05,14,34,25.30
2013,05,05,14,35,25.30
2013,05,05,14,36,25.30
2013,05,05,14,37,25.40
2013,05,05,14,38,25.30
2013,05,05,14,39,25.30
2013,05,05,14,40,25.30
2013,05,05,14,41,25.40
2013,05,05,14,42,25.40
2013,05,05,14,43,25.50
2013,05,05,14,44,25.50
2013,05,05,14,45,25.60
2013,05,05,14,46,25.70
2013,05,05,14,47,25.70
2013,05,05,14,48,25.70
2013,05,05,14,49,25.70
2013,05,05,14,50,25.70
2013,05,05,14,51,25.70
2013,05,05,14,52,25.80
2013,05,05,14,53,25.80
2013,05,05,14,54,25.70
2013,05,05,14,55,25.50
2013,05,05,14,56,25.40
2013,05,05,14,57,25.40
2013,05,05,14,58,25.40
2013,05,05,14,59,25.40
2013,05,05,15,00,25.40
2013,05,05,15,01,25.40
2013,05,05,15,02,25.30
2013,05,05,15,03,25.30
2013,05,05,15,04,25.30
2013,05,05,15,05,25.30
2013,05,05,15,06,25.40
2013,05,05,15,07,25.50
2013,05,05,15,08,25.60
2013,05,05,15,09,25.60
2013,05,05,15,10,25.60
2013,05,05,15,11,25.60
2013,05,05,15,12,25.70
2013,05,05,15,13,25.60
2013,05,05,15,14,25.60
2013,05,05,15,15,25.70
2013,05,05,15,16,25.70
2013,05,05,15,17,25.70
2013,05,05,15,18,25.70
2013,05,05,15,19,25.70
2013,05,05,15,20,25.80
2013,05,05,15,21,25.80
2013,05,05,15,22,25.80
2013,05,05,15,23,25.80
2013,05,05,15,24,25.80
2013,05,05,15,25,25.80
2013,05,05,15,26,25.70
2013,05,05,15,27,25.70
2013,05,05,15,28,25.70
2013,05,05,15,29,25.80
2013,05,05,15,30,25.90
2013,05,05,15,31,25.90
2013,05,05,15,32,25.90
2013,05,05,15,33,26.00
2013,05,05,15,34,26.10
2013,05,05,15,35,26.10
2013,05,05,15,36,26.20
2013,05,05,15,37,26.20
2013,05,05,15,38,26.20
2013,05,05,15,39,26.20
2013,05,05,15,40,26.20
2013,05,05,15,41,26.20
2013,05,05,15,42,26.30
2013,05,05,15,43,26.30
2013,05,05,15,44,26.20
2013,05,05,15,45,26.20
2013,05,05,15,46,26.20
2013,05,05,15,47,26.20
2013,05,05,15,48,26.20
2013,05,05,15,49,26.30
2013,05,05,15,50,26.30
2013,05,05,15,51,26.30
2013,05,05,15,52,26.30
2013,05,05,15,53,26.30
2013,05,05,15,54,26.20
2013,05,05,15,55,26.20
2013,05,05,15,56,26.30
2013,05,05,15,57,26.30
2013,05,05,15,58,26.30
2013,05,05,15,59,26.40
2013,05,05,16,00,26.40
2013,05,05,16,01,26.50
2013,05,05,16,02,26.50
2013,05,05,16,03,26.60
2013,05,05,16,04,26.60
2013,05,05,16,05,26.70
2013,05,05,16,06,26.70
2013,05,05,16,07,26.70
2013,05,05,16,08,26.80
2013,05,05,16,09,26.80
2013,05,05,16,10,26.80
2013,05,05,16,11,26.70
2013,05,05,16,12,26.70
2013,05,05,16,13,26.70
2013,05,05,16,14,26.80
2013,05,05,16,15,26.80
2013,05,05,16,16,26.90
2013,05,05,16,17,26.90
2013,05,05,16,18,27.00
2013,05,05,16,19,27.00
2013,05,05,16,20,27.00
2013,05,05,16,21,27.00
2013,05,05,16,22,27.00
2013,05,05,16,23,27.00
2013,05,05,16,24,27.00
2013,05,05,16,25,27.00
2013,05,05,16,26,27.10
2013,05,05,16,27,27.10
2013,05,05,16,28,27.20
2013,05,05,16,29,27.20
2013,05,05,16,30,27.20
2013,05,05,16,31,27.20
2013,05,05,16,32,27.20
2013,05,05,16,33,27.30
2013,05,05,16,34,27.30
2013,05,05,16,35,27.30
2013,05,05,16,36,27.30
2013,05,05,16,37,27.30
2013,05,05,16,38,27.40
2013,05,05,16,39,27.40
2013,05,05,16,40,27.50
2013,05,05,16,41,27.60
2013,05,05,16,42,27.60
2013,05,05,16,43,27.70
2013,05,05,16,44,27.70
2013,05,05,16,45,27.80
2013,05,05,16,46,27.80
2013,05,05,16,47,27.90
2013,05,05,16,48,27.80
2013,05,05,16,49,27.80
2013,05,05,16,50,27.70
2013,05,05,16,51,27.70
2013,05,05,16,52,27.60
2013,05,05,16,53,27.60
2013,05,05,16,54,27.50
2013,05,05,16,55,27.50
2013,05,05,16,56,27.50
2013,05,05,16,57,27.50
2013,05,05,16,58,27.60
2013,05,05,16,59,27.60
2013,05,05,17,00,27.60
2013,05,05,17,01,27.40
2013,05,05,17,02,27.30
2013,05,05,17,03,27.30
2013,05,05,17,04,27.20
2013,05,05,17,05,27.10
2013,05,05,17,06,27.00
2013,05,05,17,07,26.90
2013,05,05,17,08,26.80
2013,05,05,17,09,26.80
2013,05,05,17,10,26.80
2013,05,05,17,11,26.80
2013,05,05,17,12,26.80
2013,05,05,17,13,26.80
2013,05,05,17,14,26.90
2013,05,05,17,15,26.90
2013,05,05,17,16,26.90
2013,05,05,17,17,26.90
2013,05,05,17,18,27.00
2013,05,05,17,19,27.10